Regional Weather Roundup
Issued by NWS

Home | Current Version | Previous Version | Graphics & Text | Print | Product List | Glossary On
Versions: 1 2 3 4 5 6 7 8 9 10 11 12 13 14 15 16 17 18 19 20 21 22 23 24 25 26 27
000
ASUS45 KTFX 231810
RWRMT
MONTANA REGIONAL WEATHER ROUNDUP
NATIONAL WEATHER SERVICE GREAT FALLS MT
1200 PM MDT SUN APR 23 2017

NOTE: "FAIR" INDICATES FEW OR NO CLOUDS BELOW 12000 FEET WITH NO
SIGNIFICANT WEATHER AND/OR OBSTRUCTIONS TO VISIBILITY.

MTZ001>007-043-231900-
WEST OF THE DIVIDE

CITY           SKY/WX    TMP DP  RH WIND       PRES   REMARKS
KALISPELL      CLOUDY    52  39  61 S14       29.79F
MISSOULA       CLOUDY    47  40  76 VRB3      29.85S
BUTTE          CLOUDY    53  31  42 VRB6      29.76F
MULLAN PASS    CLOUDY    35  30  82 VRB3      29.83S
ANACONDA         N/A     48  34  57 NE8       29.76F
DEER LODGE       N/A     45  39  81 NW10      29.81S
EUREKA           N/A     57  34  41 SE7       29.76F
HAMILTON         N/A     45  37  76 N5        29.85S
LIBBY            N/A     54  37  54 CALM      29.78F
$$

MTZ008-052>055-231900-
SOUTHWEST MONTANA

CITY           SKY/WX    TMP DP  RH WIND       PRES   REMARKS
BOZEMAN        MOSUNNY   57  35  43 SE3       29.74F
DILLON         PTSUNNY   57  29  34 SW15G23   29.75F
W YELLOWSTONE  CLOUDY    39  36  87 N3        29.89S
ENNIS          PTSUNNY   55  36  47 S22G28    29.82F
THREE FORKS      N/A     60  60 100 CALM      29.76F
$$

MTZ009-010-012-014-046-048-049-054-231900-
EAST SLOPES AND CENTRAL MONTANA

CITY           SKY/WX    TMP DP  RH WIND       PRES   REMARKS
CUT BANK       CLOUDY    47  40  76 S7        29.75F
GREAT FALLS    LGT RAIN  43  41  93 NW6       29.78F FOG
MALMSTROM AFB  LGT RAIN  44  43  96 NW6       29.79S
HELENA         CLOUDY    50  42  74 CALM      29.76F
AUGUSTA        LGT RAIN  42  39  88 W5        29.77F
BOWMANS CRNR   LGT RAIN  43  40  89 NE3       29.75F
CHOTEAU          N/A     45  43  93 CALM      29.79F FOG
FAIRFIELD      RAIN      43  41  92 W3        29.77F
POWER          LGT RAIN  42  41  97 CALM      29.77S
RAYNESFORD     LGT RAIN  45  43  93 NW9       29.78S
ULM            RAIN      44  43  95 N3        29.78F
$$

MTZ011-013-016-021-045-047-050-051-231900-
NORTH CENTRAL MONTANA

CITY           SKY/WX    TMP DP  RH WIND       PRES   REMARKS
HAVRE          CLOUDY    49  40  71 E13       29.77F
LEWISTOWN      CLOUDY    59  35  40 VRB6      29.71F
N BAR RANCH      N/A     55  41  58 E12       29.75F
CHINOOK          N/A     39  37  93 E14G20    29.80F WCI  31
DENTON         PTSUNNY   48  42  79 NW16G22   29.72R
FORT BENTON      N/A     48  43  81 MISG        N/A
GEYSER         CLOUDY    51  43  73 N7        29.75S
GRASS RANGE      N/A     50  43  77 NE5       29.71F
JUDITH GAP       N/A     58  30  34 SW14G21   29.72F
STANFORD       PTSUNNY   50  42  72 NW13      29.75R
WINIFRED       PTSUNNY   47  41  81 E12       29.74S
$$

MTZ017>020-022>027-061-062-231900-
NORTHEAST MONTANA

CITY           SKY/WX    TMP DP  RH WIND       PRES   REMARKS
GLASGOW        CLOUDY    39  32  76 E21       29.85F WCI  29
JORDAN           N/A     46  39  76 E13       29.79F
SIDNEY         CLOUDY    36  28  73 SE16      29.94F WCI  26
WOLF POINT     CLOUDY    38  31  76 E18G26    29.90F WCI  28
MALTA          CLOUDY    41  36  81 E16       29.82F
PLENTYWOOD       N/A     28  27  93 E18       29.97F VSB 1/4 WCI  16
POPLAR           N/A     34  28  80 E18G24    29.92F WCI  23
$$

MTZ028>42-056>058-231900-
SOUTHCENTRAL AND SOUTHEAST MONTANA

CITY           SKY/WX    TMP DP  RH WIND       PRES   REMARKS
BAKER          CLOUDY    37  32  82 SE14      29.85F WCI  28
BILLINGS       PTSUNNY   57  40  52 SW8       29.73F
LIVINGSTON     PTSUNNY   54  38  54 W23G29    29.75F
MILES CITY     CLOUDY    48  39  71 NE14      29.79F
BIG TIMBER     MOSUNNY   57  37  47 W13G21    29.77F
LAUREL           N/A     60  42  51 SW8       29.75S
ROUNDUP          N/A     59  39  47 S2        29.67S
$$

REGIONAL REPORTS...DAKOTAS

CITY           SKY/WX    TMP DP  RH WIND       PRES   REMARKS
WILLISTON      CLOUDY    31  26  82 E17       30.00F WCI  19
MINOT          LGT SNOW  32  28  85 E21       30.05F FOG     WCI  20
DICKINSON      CLOUDY    33  28  81 E14       29.88F WCI  23
BEACH          CLOUDY    32  32 100 E16       29.92S WCI  21
TIOGA          PTSUNNY   28  28 100 E23G31    30.01S WCI  14
WATFORD CITY   CLOUDY    30  30 100 E16       29.97R WCI  19
BISMARCK       CLOUDY    39  32  76 E22       29.97F WCI  29
GRAND FORKS    CLOUDY    36  20  52 E17       30.16F WCI  26
FARGO          CLOUDY    40  32  73 E22       30.08F
BUFFALO SD       N/A     39  50 100 NE16      29.76F WCI  30
RAPID CITY     SUNNY     62  39  42 N7        29.77F
$$

REGIONAL REPORTS...WYOMING/IDAHO/WASHINGTON

CITY           SKY/WX    TMP DP  RH WIND       PRES   REMARKS
GILLETTE       SUNNY     63  33  32 S7        29.77F
SHERIDAN       CLOUDY    66  34  30 E16       29.72F
BUFFALO WY     SUNNY     63  30  28 S16       29.77F
CODY           SUNNY     60  31  33 VRB5      29.77F
YELLOWSTONE LA   N/A     45  25  45 SW3       29.90F
IDAHO FALLS    PTSUNNY   56  36  47 SW10      29.86F
SALMON         CLOUDY    52  36  54 S14       29.78S
BOISE          PTSUNNY   58  44  60 MISG      29.85S
SPOKANE        LGT RAIN  49  38  65 SW14      29.86R
$$

REGIONAL REPORTS...ALBERTA

CITY           SKY/WX    TMP DP  RH WIND       PRES   REMARKS
EDMONTON       FRZ RAIN  30  28  93 E10G17    29.87  WCI  21
CALGARY        CLOUDY    41  36  81 VRB2      29.74F
LETHBRIDGE     CLOUDY    50  41  71 NW5       29.73F
MEDICINE HAT   CLOUDY    48  41  76 VRB2      29.76F
WATERTON GATE    N/A     50  27  40 SW10        N/A
CARDSTON         N/A     54  30  40 W10G17      N/A
MILK RIVER       N/A     50  41  71 S8          N/A
$$

REGIONAL REPORTS...SASKATCHEWAN

CITY           SKY/WX    TMP DP  RH WIND       PRES   REMARKS
SWIFT CURRENT  CLOUDY    34  30  86 SE21G31   29.84F WCI  22
REGINA         CLOUDY    37  18  44 SE16G29   30.02F WCI  28
SASKATOON      CLOUDY    41  27  56 E17G24    30.02F
CYPRESS HILLS    N/A     36  34  93 S10         N/A  WCI  28
VAL MARIE        N/A     36  32  87 SE16G23     N/A  WCI  26
ASSINIBOIA       N/A     34  28  80 E18G24      N/A  WCI  23
$$




USA.gov is the U.S. government's official web portal to all federal, state and local government web resources and services.